Location: Boiro
(42.6475°N, 8.8834°W)
Time: 14:45:00
(UTC+02:00)

DELTA 1 DEB - Pass Details

Date: 09 July 2022
Orbit: 820 x 872 km, 99.0° (Epoch: 13 August)

Event Time Altitude Azimuth Distance (km) Brightness Sun altitude
Rises 05:58:16 0° 34° (NNE) 3,420 ? -10.7°
Reaches altitude 10° 06:02:02 10° 60° (ENE) 2,466 ? -10.2°
Maximum altitude 06:04:39 14° 89° (E) 2,210 ? -9.8°
Drops below altitude 10° 06:07:15 10° 118° (ESE) 2,441 ? -9.5°
Sets 06:10:55 0° 144° (SE) 3,358 ? -9.0°
